GW6628 Weather Reports


time (UTC)temp
F
wind
direction
speed
knots
gust
knots
rain 1hr
in
rain 24hr
in
rain mn
in
humidity
%
barometer
mb
20260906104525 72 74 0.9 1.7 0.00 0.38 0.00 96 1013.5
20260906104008 72 77 0.9 1.7 0.00 0.38 0.00 96 1013.4
20260906103509 72 69 0.9 1.7 0.00 0.38 0.00 96 1013.4
20260906103024 72 82 0.9 1.7 0.00 0.38 0.00 96 1013.3
20260906102512 72 88 0.0 2.6 0.00 0.38 0.00 96 1013.4
20260906102012 71 73 0.9 2.6 0.00 0.38 0.00 96 1013.3
20260906101530 71 72 0.9 0.9 0.00 0.38 0.00 96 1013.3
20260906101013 71 63 0.0 1.7 0.00 0.38 0.00 96 1013.2
20260906100517 71 67 0.9 1.7 0.00 0.38 0.00 96 1013.3
20260906100030 71 63 0.0 1.7 0.00 0.38 0.00 96 1013.2
20260906095503 71 40 0.0 1.7 0.00 0.38 0.00 96 1013.2
20260906095006 71 40 0.0 1.7 0.00 0.38 0.00 96 1013.2
20260906094517 71 40 0.0 0.0 0.00 0.38 0.00 96 1013.2
20260906094006 71 40 0.0 0.0 0.00 0.38 0.00 96 1013.1
20260906093507 71 40 0.0 0.0 0.00 0.38 0.00 96 1013.1
20260906093021 71 40 0.0 1.7 0.00 0.38 0.00 96 1013.1
20260906092510 71 40 0.0 0.0 0.00 0.38 0.00 96 1013.1
20260906092013 71 40 0.0 0.0 0.00 0.38 0.00 96 1013.0
20260906091533 71 40 0.0 0.0 0.00 0.38 0.00 96 1013.0
20260906091013 71 40 0.0 0.9 0.00 0.38 0.00 96 1013.0
20260906090515 71 40 0.0 0.9 0.00 0.38 0.00 96 1012.8
20260906090032 71 40 0.0 0.0 0.00 0.38 0.00 96 1012.8
20260906085519 71 40 0.0 0.0 0.00 0.38 0.00 95 1012.9
20260906085016 71 40 0.0 0.0 0.00 0.38 0.00 95 1012.9
20260906084510 71 40 0.0 0.0 0.00 0.38 0.00 95 1012.9
20260906084009 71 40 0.0 0.0 0.00 0.38 0.00 95 1012.9
20260906083506 71 40 0.0 0.0 0.00 0.38 0.00 96 1012.9
20260906083016 71 40 0.0 0.0 0.00 0.38 0.00 96 1013.0
20260906082511 71 40 0.0 0.0 0.00 0.38 0.00 96 1013.0
20260906082009 71 40 0.0 0.0 0.00 0.38 0.00 96 1012.9
20260906081538 71 40 0.0 0.0 0.00 0.38 0.00 96 1012.9
20260906081011 71 40 0.0 0.9 0.00 0.38 0.00 95 1012.9
20260906080510 71 40 0.0 1.7 0.00 0.38 0.00 95 1012.9
20260906080031 71 40 0.0 1.7 0.00 0.38 0.00 95 1012.9
20260906075516 71 40 0.0 0.0 0.00 0.38 0.00 95 1012.7
20260906075014 72 40 0.0 0.0 0.00 0.38 0.00 95 1012.7
20260906074532 72 40 0.0 0.0 0.00 0.38 0.00 95 1012.7
20260906074016 72 40 0.0 0.9 0.00 0.38 0.00 96 1012.8
20260906073506 72 40 0.9 1.7 0.00 0.38 0.00 96 1012.8
20260906073019 72 40 0.0 1.7 0.00 0.38 0.00 95 1012.8
20260906072506 72 40 0.0 0.0 0.00 0.38 0.00 95 1012.8
20260906072007 72 40 0.0 0.0 0.00 0.38 0.00 95 1012.8
20260906071519 72 40 0.0 0.0 0.00 0.38 0.00 95 1012.9
20260906071009 72 40 0.0 1.7 0.00 0.38 0.00 95 1012.9
20260906070511 72 40 0.0 1.7 0.00 0.38 0.00 95 1012.9
20260906070028 72 40 0.0 1.7 0.00 0.38 0.00 95 1012.9
20260906065513 72 40 0.0 1.7 0.00 0.38 0.00 95 1013.1
20260906065017 72 40 0.0 1.7 0.00 0.38 0.00 95 1013.1
20260906064531 72 40 0.0 1.7 0.00 0.38 0.00 95 1013.1
20260906064016 72 40 0.0 1.7 0.00 0.38 0.00 95 1013.1
20260906063516 72 151 0.9 1.7 0.00 0.38 0.00 95 1013.1
20260906063032 73 84 0.0 1.7 0.00 0.38 0.00 95 1013.2
20260906062507 73 71 0.0 1.7 0.00 0.38 0.00 95 1013.2
20260906062005 73 55 0.0 1.7 0.00 0.38 0.00 95 1013.3
20260906061519 73 19 0.9 3.5 0.00 0.38 0.00 95 1013.4
20260906061013 73 47 0.0 3.5 0.00 0.38 0.00 95 1013.4
20260906060509 73 63 0.9 2.6 0.00 0.38 0.00 95 1013.3
20260906060029 73 32 0.9 2.6 0.00 0.38 0.00 95 1013.3
20260906055511 73 34 0.9 2.6 0.00 0.38 0.00 95 1013.3
20260906055015 73 31 1.7 1.7 0.00 0.38 0.00 95 1013.2
20260906054534 73 31 0.9 1.7 0.00 0.38 0.00 95 1013.1
20260906054016 73 31 0.0 1.7 0.00 0.38 0.00 95 1013.1
20260906053514 73 31 0.0 1.7 0.00 0.38 0.00 95 1013.1
20260906053034 73 31 0.0 0.9 0.00 0.38 0.00 95 1013.2
20260906052521 73 31 0.0 1.7 0.00 0.38 0.00 95 1013.3
20260906052019 73 31 0.9 1.7 0.00 0.38 0.00 95 1013.3
20260906051532 73 31 0.0 1.7 0.00 0.38 0.00 94 1013.2
20260906051008 73 31 0.0 1.7 0.00 0.38 0.00 94 1013.2
20260906050507 73 31 0.0 1.7 0.00 0.38 0.00 94 1013.3
20260906050032 73 31 0.0 1.7 0.00 0.38 0.00 94 1013.3
20260906045510 73 31 0.9 1.7 0.00 0.38 0.38 94 1013.3
20260906045010 73 31 0.0 1.7 0.00 0.38 0.38 94 1013.3
20260906044535 73 31 0.0 1.7 0.00 0.38 0.38 94 1013.3
20260906044018 73 31 0.0 2.6 0.00 0.38 0.38 94 1013.3
20260906043514 74 31 0.0 2.6 0.00 0.38 0.38 94 1013.3
20260906043030 74 13 1.7 2.6 0.00 0.38 0.38 94 1013.2
20260906042513 74 280 0.0 1.7 0.00 0.38 0.38 94 1013.3
20260906042016 74 280 0.9 4.3 0.00 0.38 0.38 95 1013.1
20260906041536 74 219 0.9 4.3 0.00 0.38 0.38 95 1013.1
20260906041018 73 169 0.0 1.7 0.00 0.38 0.38 95 1013.1
20260906040515 73 169 0.0 2.6 0.00 0.38 0.38 95 1013.2
20260906040028 73 233 0.9 2.6 0.00 0.38 0.38 95 1013.2
20260906035510 73 223 0.9 1.7 0.00 0.38 0.38 94 1013.3
20260906035010 73 252 0.0 1.7 0.00 0.38 0.38 94 1013.1
20260906034529 73 252 0.0 1.7 0.00 0.38 0.38 94 1013.0
20260906034013 73 252 0.0 1.7 0.00 0.38 0.38 94 1012.9
20260906033511 73 252 0.0 1.7 0.00 0.38 0.38 94 1013.0
20260906033040 73 252 1.7 2.6 0.00 0.38 0.38 95 1012.9
20260906032513 73 244 1.7 2.6 0.00 0.38 0.38 94 1012.8
20260906032015 73 306 0.9 1.7 0.00 0.38 0.38 94 1012.8
20260906031532 73 88 0.0 0.9 0.00 0.38 0.38 94 1012.8
20260906031018 73 88 0.0 0.9 0.00 0.38 0.38 94 1012.7
20260906030516 73 88 0.0 1.7 0.00 0.38 0.38 94 1012.6
20260906030035 73 88 0.0 2.6 0.00 0.38 0.38 94 1012.7
20260906025519 73 88 0.0 2.6 0.00 0.38 0.38 94 1012.6
20260906025010 73 82 0.9 1.7 0.00 0.38 0.38 94 1012.5
20260906024526 73 74 0.9 1.7 0.00 0.38 0.38 94 1012.5
20260906024012 73 92 0.9 1.7 0.00 0.38 0.38 93 1012.4
20260906023503 73 58 0.9 1.7 0.00 0.38 0.38 93 1012.3
20260906023004 73 58 0.9 1.7 0.00 0.38 0.38 93 1012.2
20260906022503 73 124 0.0 1.7 0.00 0.38 0.38 93 1012.1
20260906022003 73 124 0.0 1.7 0.00 0.38 0.38 93 1012.0
20260906021505 73 124 0.9 1.7 0.00 0.38 0.38 93 1011.9
20260906021002 73 85 0.9 1.7 0.00 0.38 0.38 93 1011.7
20260906020504 73 80 0.0 2.6 0.00 0.38 0.38 92 1011.7
20260906020005 74 80 0.0 3.5 0.00 0.38 0.38 92 1011.7
20260906015504 74 70 1.7 3.5 0.00 0.38 0.38 92 1011.7
20260906015004 74 44 1.7 2.6 0.00 0.38 0.38 91 1011.7
20260906014506 74 54 0.9 3.5 0.00 0.38 0.38 91 1011.7
20260906014003 74 355 0.9 3.5 0.00 0.38 0.38 91 1011.8
20260906013503 74 16 2.6 3.5 0.00 0.38 0.38 90 1011.8
20260906013010 74 343 0.0 4.3 0.01 0.38 0.38 90 1011.6
20260906012507 74 161 1.7 4.3 0.03 0.38 0.38 90 1011.7
20260906012007 74 189 2.6 3.5 0.26 0.38 0.38 91 1011.7
20260906011503 74 354 0.9 2.6 0.38 0.38 0.38 92 1011.9
20260906011002 73 132 1.7 2.6 0.38 0.38 0.38 92 1012.1
20260906010503 73 25 0.9 4.3 0.38 0.38 0.38 91 1012.3
20260906010006 72 170 0.9 5.2 0.38 0.38 0.38 90 1012.8
20260906005503 72 85 0.9 5.2 0.38 0.38 0.38 89 1013.3
20260906005004 73 198 1.7 6.1 0.38 0.38 0.38 86 1013.2
20260906004508 73 77 2.6 6.1 0.38 0.38 0.38 83 1012.8
20260906004002 74 53 1.7 7.0 0.38 0.38 0.38 79 1012.3
20260906003502 74 138 1.7 13.9 0.38 0.38 0.38 78 1011.9
20260906003007 75 114 6.1 26.1 0.37 0.37 0.37 73 1011.5
20260906002505 78 213 12.2 26.1 0.35 0.35 0.35 75 1012.3
20260906002003 82 180 7.0 17.4 0.12 0.12 0.12 69 1012.8
20260906001504 84 48 7.8 17.4 0.00 0.00 0.00 69 1012.8
20260906001003 84 9 4.3 6.1 0.00 0.00 0.00 69 1012.2
20260906000503 84 7 1.7 3.5 0.00 0.00 0.00 71 1011.4
20260906000006 85 168 0.0 1.7 0.00 0.00 0.00 71 1011.1
20260905235504 86 168 0.9 1.7 0.00 0.00 0.00 67 1011.4
20260905235006 87 115 0.9 6.1 0.00 0.00 0.00 67 1011.9
20260905234507 87 219 0.0 7.0 0.00 0.00 0.00 61 1012.0
20260905234004 87 201 3.5 7.0 0.00 0.00 0.00 60 1011.9
20260905233504 87 210 4.3 6.1 0.00 0.00 0.00 61 1012.1
20260905233004 88 202 1.7 3.5 0.00 0.00 0.00 62 1012.0
20260905232504 88 151 0.0 1.7 0.00 0.00 0.00 66 1011.6
20260905232004 89 138 0.0 1.7 0.00 0.00 0.00 62 1011.3
20260905231505 89 170 0.9 1.7 0.00 0.00 0.00 65 1011.1
20260905231005 90 189 0.9 1.7 0.00 0.00 0.00 65 1011.1
20260905230506 91 188 0.9 1.7 0.00 0.00 0.00 63 1011.0
20260905230007 91 162 0.0 2.6 0.00 0.00 0.00 64 1010.9
20260905225503 91 162 0.0 5.2 0.00 0.00 0.00 56 1010.9
20260905225004 92 164 1.7 5.2 0.00 0.00 0.00 56 1010.9
20260905224506 93 219 2.6 5.2 0.00 0.00 0.00 62 1010.9
20260905224004 93 221 0.9 4.3 0.00 0.00 0.00 60 1010.8
20260905223503 94 223 1.7 3.5 0.00 0.00 0.00 62 1010.8
20260905223008 94 138 0.9 4.3 0.00 0.00 0.00 63 1010.7
20260905222505 94 196 0.9 5.2 0.00 0.00 0.00 59 1010.7
20260905222004 95 194 2.6 5.2 0.00 0.00 0.00 67 1010.8
20260905221508 95 128 0.9 2.6 0.00 0.00 0.00 63 1010.9
20260905221003 95 107 0.9 3.5 0.00 0.00 0.00 60 1010.8
20260905220506 95 46 2.6 3.5 0.00 0.00 0.00 61 1010.8
20260905220008 95 53 1.7 3.5 0.00 0.00 0.00 61 1010.8
20260905215505 95 56 1.7 3.5 0.00 0.00 0.00 63 1010.8
20260905215004 95 76 1.7 3.5 0.00 0.00 0.00 62 1010.9
20260905214508 95 61 1.7 3.5 0.00 0.00 0.00 63 1010.9
20260905214004 95 78 2.6 5.2 0.00 0.00 0.00 63 1010.9
20260905213504 95 63 2.6 5.2 0.00 0.00 0.00 64 1010.9
20260905213007 94 112 2.6 5.2 0.00 0.00 0.00 62 1010.9
20260905212503 94 83 2.6 5.2 0.00 0.00 0.00 67 1010.9
20260905212003 94 86 0.9 6.1 0.00 0.00 0.00 66 1010.9
20260905211506 95 78 1.7 6.1 0.00 0.00 0.00 63 1011.0
20260905211004 96 74 1.7 2.6 0.00 0.00 0.00 64 1011.1
20260905210506 96 53 0.0 1.7 0.00 0.00 0.00 61 1011.1
20260905210010 96 53 0.0 1.7 0.00 0.00 0.00 60 1011.2
20260905205505 95 45 0.0 1.7 0.00 0.00 0.00 60 1011.3
20260905205004 95 99 0.0 1.7 0.00 0.00 0.00 63 1011.4
20260905204516 95 138 0.0 1.7 0.00 0.00 0.00 66 1011.3
20260905204005 94 85 0.0 5.2 0.00 0.00 0.00 60 1011.3
20260905203506 95 85 0.9 5.2 0.00 0.00 0.00 62 1011.4
20260905203010 96 67 1.7 3.5 0.00 0.00 0.00 58 1011.5
20260905202506 96 73 1.7 5.2 0.00 0.00 0.00 57 1011.5
20260905202006 96 84 0.0 5.2 0.00 0.00 0.00 59 1011.6
20260905201508 96 86 2.6 4.3 0.00 0.00 0.00 60 1011.6
20260905201007 96 55 0.9 2.6 0.00 0.00 0.00 62 1011.6
20260905200503 95 62 0.9 1.7 0.00 0.00 0.00 65 1011.8
20260905200009 94 49 0.9 1.7 0.00 0.00 0.00 66 1011.8
20260905195504 93 49 0.9 0.9 0.00 0.00 0.00 70 1011.8
20260905195007 93 73 0.9 1.7 0.00 0.00 0.00 73 1011.9
20260905194513 93 73 0.9 1.7 0.00 0.00 0.00 66 1012.1
20260905194004 93 80 0.9 1.7 0.00 0.00 0.00 59 1012.2
20260905193505 93 267 0.0 1.7 0.00 0.00 0.00 65 1012.3
20260905193012 94 267 0.0 1.7 0.00 0.00 0.00 64 1012.4
20260905192506 94 267 0.9 2.6 0.00 0.00 0.00 56 1012.5
20260905192006 94 100 0.0 2.6 0.00 0.00 0.00 57 1012.5
20260905191512 95 79 0.9 1.7 0.00 0.00 0.00 61 1012.6
20260905191010 96 89 0.9 2.6 0.00 0.00 0.00 62 1012.8
20260905190508 96 41 0.9 2.6 0.00 0.00 0.00 57 1012.9
20260905190013 96 176 0.9 3.5 0.00 0.00 0.00 56 1013.0
20260905185505 96 356 1.7 3.5 0.00 0.00 0.00 59 1013.0
20260905185006 96 69 0.9 6.1 0.00 0.00 0.00 56 1012.9
20260905184513 96 54 2.6 6.1 0.00 0.00 0.00 56 1013.0
20260905184004 96 103 0.9 4.3 0.00 0.00 0.00 56 1013.2
20260905183504 96 89 0.9 4.3 0.00 0.00 0.00 58 1013.3
20260905183014 97 186 0.9 4.3 0.00 0.00 0.00 58 1013.2
20260905182505 96 180 0.9 3.5 0.00 0.00 0.00 61 1013.3
20260905182007 96 90 0.9 3.5 0.00 0.00 0.00 58 1013.4
20260905181515 96 23 1.7 2.6 0.00 0.00 0.00 59 1013.5
20260905181007 95 94 0.9 3.5 0.00 0.00 0.00 58 1013.5
20260905180504 95 161 2.6 5.2 0.00 0.00 0.00 57 1013.5
20260905180015 95 138 0.9 6.1 0.00 0.00 0.00 60 1013.7
20260905175508 96 60 2.6 6.1 0.00 0.00 0.00 59 1013.7
20260905175007 95 24 0.9 2.6 0.00 0.00 0.00 59 1013.7
20260905174512 95 38 0.0 4.3 0.00 0.00 0.00 60 1013.9
20260905174012 95 56 0.9 4.3 0.00 0.00 0.00 61 1014.0
20260905173504 95 69 1.7 5.2 0.00 0.00 0.00 63 1014.1
20260905173007 95 80 1.7 5.2 0.00 0.00 0.00 63 1014.2
20260905172506 94 86 1.7 3.5 0.00 0.00 0.00 58 1014.2
20260905172006 94 45 1.7 3.5 0.00 0.00 0.00 59 1014.2
20260905171519 93 227 0.9 5.2 0.00 0.00 0.00 61 1014.2
20260905171007 94 151 3.5 5.2 0.00 0.00 0.00 60 1014.3
20260905170505 93 53 1.7 6.1 0.00 0.00 0.00 63 1014.3
20260905170016 94 61 3.5 6.1 0.00 0.00 0.00 60 1014.4
20260905165507 93 79 3.5 5.2 0.00 0.00 0.00 63 1014.5
20260905165012 93 192 1.7 3.5 0.00 0.00 0.00 60 1014.5
20260905164514 93 69 2.6 3.5 0.00 0.00 0.00 61 1014.5
20260905164008 93 73 1.7 2.6 0.00 0.00 0.00 61 1014.6
20260905163508 93 200 0.9 7.0 0.00 0.00 0.00 63 1014.7
20260905163017 92 27 1.7 8.7 0.00 0.00 0.00 61 1014.9
20260905162504 93 71 5.2 8.7 0.00 0.00 0.00 63 1015.0
20260905162005 92 67 0.9 2.6 0.00 0.00 0.00 62 1015.0
20260905161509 91 126 0.0 6.1 0.00 0.00 0.00 61 1015.0
20260905161005 91 94 1.7 6.1 0.00 0.00 0.00 62 1015.1
20260905160504 91 77 2.6 6.1 0.00 0.00 0.00 63 1015.1
20260905160023 91 65 2.6 6.1 0.00 0.00 0.00 66 1015.1
20260905155509 90 134 0.9 5.2 0.00 0.00 0.00 67 1015.1
20260905155011 90 164 0.0 8.7 0.00 0.00 0.00 67 1015.1
20260905154518 89 72 3.5 8.7 0.00 0.00 0.00 70 1015.2
20260905154011 89 93 3.5 6.1 0.00 0.00 0.00 71 1015.3
20260905153510 89 76 3.5 6.1 0.00 0.00 0.00 69 1015.2
20260905153021 89 48 1.7 10.4 0.00 0.00 0.00 67 1015.1
20260905152510 88 90 2.6 10.4 0.00 0.00 0.00 72 1015.2
20260905152008 88 72 3.5 12.2 0.00 0.00 0.00 73 1015.2
20260905151509 87 116 2.6 12.2 0.00 0.00 0.00 73 1015.2
20260905151004 88 67 5.2 11.3 0.00 0.00 0.00 72 1015.2
20260905150507 89 74 1.7 4.3 0.00 0.00 0.00 70 1015.2
20260905150014 89 355 1.7 4.3 0.00 0.00 0.00 68 1015.1
20260905145506 89 305 2.6 3.5 0.00 0.00 0.00 66 1015.0
20260905145011 89 170 0.0 1.7 0.00 0.00 0.00 71 1015.1
20260905144520 89 170 0.0 2.6 0.00 0.00 0.00 70 1015.1
20260905144014 88 101 0.9 2.6 0.00 0.00 0.00 73 1015.1
20260905143021 87 239 0.0 2.6 0.00 0.00 0.00 73 1015.1
20260905142509 87 192 1.7 2.6 0.00 0.00 0.00 77 1015.0
20260905142007 86 77 0.9 1.7 0.00 0.00 0.00 75 1015.2
20260905141520 86 72 0.9 1.7 0.00 0.00 0.00 77 1015.2
20260905141012 85 92 0.0 1.7 0.00 0.00 0.00 79 1015.1
20260905140504 84 57 0.0 2.6 0.00 0.00 0.00 78 1015.0
20260905140011 84 88 1.7 2.6 0.00 0.00 0.00 79 1015.1
20260905135504 83 52 1.7 2.6 0.00 0.00 0.00 83 1015.1
20260905135008 82 203 0.0 1.7 0.00 0.00 0.00 84 1015.0
20260905134518 81 203 0.0 1.7 0.00 0.00 0.00 85 1015.0
20260905134014 80 203 0.0 1.7 0.00 0.00 0.00 87 1015.1
20260905133509 79 203 0.9 1.7 0.00 0.00 0.00 89 1015.1
20260905133023 78 203 0.9 1.7 0.00 0.00 0.00 93 1015.2
20260905132511 77 225 0.9 1.7 0.00 0.00 0.00 95 1015.2
20260905132009 77 190 0.9 2.6 0.00 0.00 0.00 97 1015.2
20260905131523 76 184 1.7 2.6 0.00 0.00 0.00 97 1015.2
20260905131013 75 239 0.9 1.7 0.00 0.00 0.00 97 1015.2
20260905130509 75 239 0.0 1.7 0.00 0.00 0.00 97 1015.2
20260905130023 75 239 0.0 1.7 0.00 0.00 0.00 96 1015.2
20260905125515 75 239 0.0 1.7 0.00 0.00 0.00 96 1015.3
20260905125005 74 240 0.0 0.9 0.00 0.00 0.00 97 1015.3
20260905124517 74 239 0.0 0.9 0.00 0.00 0.00 96 1015.2
20260905124005 74 240 0.0 1.7 0.00 0.00 0.00 96 1015.2
20260905123507 74 151 0.9 1.7 0.00 0.00 0.00 96 1015.2
20260905123023 74 151 0.0 1.7 0.00 0.00 0.00 96 1015.3
20260905122512 74 151 0.0 1.7 0.00 0.00 0.00 96 1015.2
20260905122011 73 151 0.0 1.7 0.00 0.00 0.00 96 1015.2
20260905121524 73 151 0.0 1.7 0.00 0.00 0.00 96 1015.3
20260905121011 73 151 0.9 1.7 0.00 0.00 0.00 96 1015.2
20260905120510 73 34 0.0 3.5 0.00 0.00 0.00 96 1015.2
20260905120023 73 18 0.0 3.5 0.00 0.00 0.00 96 1015.1
20260905115509 73 28 2.6 3.5 0.00 0.00 0.00 96 1015.1
20260905115009 72 4 0.0 1.7 0.00 0.00 0.00 96 1015.0
20260905114523 72 4 0.0 1.7 0.00 0.00 0.00 96 1014.8
20260905114005 72 4 0.0 1.7 0.00 0.00 0.00 95 1014.7
20260905113507 73 4 0.0 1.7 0.00 0.00 0.00 95 1014.6
20260905113018 73 4 0.0 1.7 0.00 0.00 0.00 96 1014.5
20260905112510 73 4 0.0 0.0 0.00 0.00 0.00 96 1014.4
20260905112010 73 3 0.0 0.0 0.00 0.00 0.00 96 1014.5
20260905111524 73 3 0.0 0.0 0.00 0.00 0.00 96 1014.3
20260905111011 73 4 0.0 0.0 0.00 0.00 0.00 96 1014.2
20260905110512 73 4 0.0 1.7 0.00 0.00 0.00 96 1014.2
20260905110026 73 4 0.0 1.7 0.00 0.00 0.00 96 1014.2
20260905105514 73 4 0.0 1.7 0.00 0.00 0.00 96 1014.2
20260905105016 73 4 0.0 1.7 0.00 0.00 0.00 95 1014.1